Location: M.A.R.S.Observatory
(35.4031°N, 81.5481°W)
Time: 05:13:06
(UTC-05:00)

SL-8 R/B - Visible Passes

Search period start: 23 February 2018 00:00
Search period end: 05 March 2018 00:00
Orbit: 657 x 667 km, 48.4° (Epoch: 22 February)

Date Brightness Start Highest point End Pass type
(mag) Time Alt. Az. Time Alt. Az. Time Alt. Az.
23 Feb 5.2 18:52:36 10° W 18:56:51 31° NNW 19:01:06 10° NE visible
23 Feb 5.9 20:37:27 10° NW 20:40:10 17° N 20:40:10 17° N visible
24 Feb 5.7 19:24:51 10° WNW 19:28:24 20° NNW 19:31:56 10° NE visible
24 Feb 6.4 21:09:07 10° NW 21:09:55 13° NNW 21:09:55 13° NNW visible
25 Feb 5.7 19:57:02 10° NW 20:00:07 17° N 20:01:40 15° NNE visible
26 Feb 5.7 18:44:27 10° WNW 18:47:58 20° NNW 18:51:28 10° NE visible
26 Feb 5.8 20:28:39 10° NW 20:31:23 17° N 20:31:23 17° N visible
27 Feb 5.8 19:16:37 10° NW 19:19:42 17° N 19:22:47 10° NE visible
27 Feb 6.1 20:59:40 10° NW 21:01:06 16° NNW 21:01:06 16° NNW visible
28 Feb 5.5 19:48:11 10° NW 19:51:28 18° N 19:52:50 16° NNE visible
28 Feb 6.6 21:30:28 10° NW 21:30:49 12° NW 21:30:49 12° NW visible
01 Mar 5.2 20:19:10 10° NW 20:22:35 24° N 20:22:35 24° N visible
02 Mar 5.6 19:07:43 10° NW 19:11:03 18° N 19:14:22 10° NE visible
02 Mar 5.4 20:49:57 10° NW 20:52:21 26° NNW 20:52:21 26° NNW visible
03 Mar 5.0 19:38:40 10° NW 19:42:40 26° NNE 19:44:11 22° NE visible
03 Mar 6.2 21:20:51 10° NW 21:22:11 19° NW 21:22:11 19° NW visible
04 Mar 4.1 20:09:27 10° NW 20:14:04 46° NNE 20:14:04 46° NNE visible
